Time,TemperatureF,DewpointF,PressureIn,WindDirection,WindDirectionDegrees,WindSpeedMPH,WindSpeedGustMPH,Humidity,HourlyPrecipIn,Conditions,Clouds,dailyrainin,SolarRadiationWatts/m^2,SoftwareType,DateUTC
2013-02-19 00:21:00,25.0,23.0,-100.00,SE,143,11.0,22.0,94,-99.99,,,-99.99,0.000000,,2013-02-19 08:21:00,
2013-02-19 00:30:00,24.0,20.0,-100.00,SSE,163,7.0,15.0,83,-99.99,,,-99.99,0.000000,,2013-02-19 08:30:00,
2013-02-19 01:21:00,24.0,20.0,-100.00,SSE,163,7.0,15.0,83,-99.99,,,-99.99,0.000000,,2013-02-19 09:21:00,
2013-02-19 01:30:00,25.0,24.0,-100.00,SSE,164,6.0,18.0,96,-99.99,,,-99.99,0.000000,,2013-02-19 09:30:00,
2013-02-19 02:21:00,25.0,24.0,-100.00,SSE,164,6.0,18.0,96,-99.99,,,-99.99,0.000000,,2013-02-19 10:21:00,
2013-02-19 02:30:00,25.0,24.0,-100.00,SSW,195,4.0,10.0,95,-99.99,,,-99.99,0.000000,,2013-02-19 10:30:00,
2013-02-19 03:21:00,25.0,24.0,-100.00,SSW,195,4.0,10.0,95,-99.99,,,-99.99,0.000000,,2013-02-19 11:21:00,
2013-02-19 03:30:00,23.0,21.0,-100.00,SSW,207,6.0,14.0,94,-99.99,,,-99.99,0.000000,,2013-02-19 11:30:00,
2013-02-19 04:21:00,23.0,21.0,-100.00,SSW,207,6.0,14.0,94,-99.99,,,-99.99,0.000000,,2013-02-19 12:21:00,
2013-02-19 04:30:00,20.0,18.0,-100.00,SSW,203,5.0,13.0,93,-99.99,,,-99.99,0.000000,,2013-02-19 12:30:00,
2013-02-19 05:22:00,20.0,18.0,-100.00,SSW,203,5.0,13.0,93,-99.99,,,-99.99,0.000000,,2013-02-19 13:22:00,
2013-02-19 05:30:00,18.0,16.0,-100.00,SSW,195,3.0,8.0,92,-99.99,,,-99.99,0.000000,,2013-02-19 13:30:00,
2013-02-19 06:21:00,18.0,16.0,-100.00,SSW,195,3.0,8.0,92,-99.99,,,-99.99,0.000000,,2013-02-19 14:21:00,
2013-02-19 06:30:00,16.0,15.0,-100.00,SSW,213,2.0,6.0,92,-99.99,,,-99.99,0.000000,,2013-02-19 14:30:00,
2013-02-19 07:21:00,16.0,15.0,-100.00,SSW,213,2.0,6.0,92,-99.99,,,-99.99,0.000000,,2013-02-19 15:21:00,
2013-02-19 07:30:00,16.0,14.0,-100.00,SSE,164,4.0,7.0,92,-99.99,,,-99.99,17.000000,,2013-02-19 15:30:00,
2013-02-19 08:21:00,16.0,14.0,-100.00,SSE,164,4.0,7.0,92,-99.99,,,-99.99,17.000000,,2013-02-19 16:21:00,
2013-02-19 08:30:00,16.0,14.0,-100.00,SSE,149,6.0,12.0,92,-99.99,,,-99.99,78.000000,,2013-02-19 16:30:00,
2013-02-19 09:21:00,16.0,14.0,-100.00,SSE,149,6.0,12.0,92,-99.99,,,-99.99,78.000000,,2013-02-19 17:21:00,
2013-02-19 09:30:00,16.0,14.0,-100.00,South,174,3.0,11.0,92,-99.99,,,-99.99,136.000000,,2013-02-19 17:30:00,
2013-02-19 10:21:00,16.0,14.0,-100.00,South,174,3.0,11.0,92,-99.99,,,-99.99,136.000000,,2013-02-19 18:21:00,
2013-02-19 10:30:00,17.0,15.0,-100.00,SE,141,9.0,19.0,92,-99.99,,,-99.99,111.000000,,2013-02-19 18:30:00,
2013-02-19 11:21:00,17.0,15.0,-100.00,SE,141,9.0,19.0,92,-99.99,,,-99.99,111.000000,,2013-02-19 19:21:00,
2013-02-19 11:30:00,18.0,16.0,-100.00,SE,127,9.0,15.0,92,-99.99,,,-99.99,123.000000,,2013-02-19 19:30:00,
2013-02-19 12:21:00,18.0,16.0,-100.00,SE,127,9.0,15.0,92,-99.99,,,-99.99,123.000000,,2013-02-19 20:21:00,
2013-02-19 12:30:00,17.0,15.0,-100.00,ESE,121,9.0,18.0,91,-99.99,,,-99.99,105.000000,,2013-02-19 20:30:00,
2013-02-19 13:21:00,17.0,15.0,-100.00,ESE,121,9.0,18.0,91,-99.99,,,-99.99,105.000000,,2013-02-19 21:21:00,
2013-02-19 13:30:00,16.0,14.0,-100.00,SE,126,12.0,22.0,90,-99.99,,,-99.99,81.000000,,2013-02-19 21:30:00,
2013-02-19 14:21:00,16.0,14.0,-100.00,SE,126,12.0,22.0,90,-99.99,,,-99.99,81.000000,,2013-02-19 22:21:00,
2013-02-19 14:30:00,16.0,14.0,-100.00,ESE,118,11.0,24.0,91,-99.99,,,-99.99,88.000000,,2013-02-19 22:30:00,
2013-02-19 15:21:00,16.0,14.0,-100.00,ESE,118,11.0,24.0,91,-99.99,,,-99.99,88.000000,,2013-02-19 23:21:00,
2013-02-19 15:30:00,16.0,14.0,-100.00,SE,124,10.0,19.0,92,-99.99,,,-99.99,26.000000,,2013-02-19 23:30:00,
2013-02-19 16:21:00,16.0,14.0,-100.00,SE,124,10.0,19.0,92,-99.99,,,-99.99,26.000000,,2013-02-20 00:21:00,
2013-02-19 16:30:00,16.0,14.0,-100.00,SSW,208,2.0,5.0,92,-99.99,,,-99.99,17.000000,,2013-02-20 00:30:00,
2013-02-19 17:21:00,16.0,14.0,-100.00,SSW,208,2.0,5.0,92,-99.99,,,-99.99,17.000000,,2013-02-20 01:21:00,
2013-02-19 17:30:00,15.0,13.0,-100.00,NW,320,2.0,4.0,91,-99.99,,,-99.99,3.000000,,2013-02-20 01:30:00,
2013-02-19 18:21:00,15.0,13.0,-100.00,NW,320,2.0,4.0,91,-99.99,,,-99.99,3.000000,,2013-02-20 02:21:00,
2013-02-19 18:30:00,13.0,10.0,-100.00,NNW,336,3.0,7.0,90,-99.99,,,-99.99,0.000000,,2013-02-20 02:30:00,
2013-02-19 19:22:00,13.0,10.0,-100.00,NNW,336,3.0,7.0,90,-99.99,,,-99.99,0.000000,,2013-02-20 03:22:00,
2013-02-19 19:30:00,12.0,10.0,-100.00,East,92,1.0,3.0,90,-99.99,,,-99.99,0.000000,,2013-02-20 03:30:00,
2013-02-19 20:21:00,12.0,10.0,-100.00,East,92,1.0,3.0,90,-99.99,,,-99.99,0.000000,,2013-02-20 04:21:00,
2013-02-19 20:30:00,13.0,10.0,-100.00,ENE,60,1.0,4.0,90,-99.99,,,-99.99,0.000000,,2013-02-20 04:30:00,
2013-02-19 21:22:00,13.0,10.0,-100.00,ENE,60,1.0,4.0,90,-99.99,,,-99.99,0.000000,,2013-02-20 05:22:00,
2013-02-19 23:30:00,16.0,13.0,-100.00,SE,137,1.0,4.0,91,-99.99,,,-99.99,0.000000,,2013-02-20 07:30:00,